Time,TemperatureF,DewpointF,PressureIn,WindDirection,WindDirectionDegrees,WindSpeedMPH,WindSpeedGustMPH,Humidity,HourlyPrecipIn,Conditions,Clouds,dailyrainin,SoftwareType,DateUTC
2013-12-28 00:01:00,33.0,-40.0,30.36,WSW,247,0.0,1.0,0,0.00,,,0.00,Rainwise IP-100,2013-12-28 05:01:00,
2013-12-28 00:02:00,33.0,-40.0,30.36,West,270,0.0,1.0,0,0.00,,,0.00,Rainwise IP-100,2013-12-28 05:02:00,
2013-12-28 00:03:00,33.0,-40.0,30.36,WNW,292,1.0,1.0,0,0.00,,,0.00,Rainwise IP-100,2013-12-28 05:03:00,
2013-12-28 00:05:00,33.0,-40.0,30.36,West,270,0.0,1.0,0,0.00,,,0.00,Rainwise IP-100,2013-12-28 05:05:00,
2013-12-28 00:10:00,33.0,-40.0,30.36,West,270,0.0,1.0,0,0.00,,,0.00,Rainwise IP-100,2013-12-28 05:10:00,
2013-12-28 00:15:00,33.0,-40.0,30.35,NW,315,0.0,5.0,0,0.00,,,0.00,Rainwise IP-100,2013-12-28 05:15:00,
2013-12-28 00:20:00,33.0,-40.0,30.35,West,270,1.0,3.0,0,0.00,,,0.00,Rainwise IP-100,2013-12-28 05:20:00,
2013-12-28 00:25:00,33.0,-40.0,30.35,West,270,3.0,3.0,0,0.00,,,0.00,Rainwise IP-100,2013-12-28 05:25:00,
2013-12-28 00:30:00,32.0,-40.0,30.36,WSW,247,0.0,3.0,0,0.00,,,0.00,Rainwise IP-100,2013-12-28 05:30:00,
2013-12-28 00:35:00,32.0,-40.0,30.36,WNW,292,0.0,4.0,0,0.00,,,0.00,Rainwise IP-100,2013-12-28 05:35:00,
2013-12-28 00:40:00,32.0,-40.0,30.35,West,270,0.0,4.0,0,0.00,,,0.00,Rainwise IP-100,2013-12-28 05:40:00,
2013-12-28 00:45:00,32.0,-40.0,30.35,West,270,1.0,1.0,0,0.00,,,0.00,Rainwise IP-100,2013-12-28 05:45:00,
2013-12-28 00:50:00,33.0,-40.0,30.34,WNW,292,1.0,1.0,0,0.00,,,0.00,Rainwise IP-100,2013-12-28 05:50:00,
2013-12-28 00:56:00,32.0,-40.0,30.34,West,270,0.0,1.0,0,0.00,,,0.00,Rainwise IP-100,2013-12-28 05:56:00,
2013-12-28 01:01:00,32.0,-40.0,30.34,West,270,0.0,0.0,0,0.00,,,0.00,Rainwise IP-100,2013-12-28 06:01:00,
2013-12-28 01:06:00,32.0,-40.0,30.34,West,270,0.0,0.0,0,0.00,,,0.00,Rainwise IP-100,2013-12-28 06:06:00,
2013-12-28 01:11:00,32.0,-40.0,30.34,WNW,292,0.0,0.0,0,0.00,,,0.00,Rainwise IP-100,2013-12-28 06:11:00,
2013-12-28 01:16:00,31.0,-40.0,30.34,West,270,0.0,0.0,0,0.00,,,0.00,Rainwise IP-100,2013-12-28 06:16:00,
2013-12-28 01:21:00,31.0,-40.0,30.34,West,270,0.0,0.0,0,0.00,,,0.00,Rainwise IP-100,2013-12-28 06:21:00,
2013-12-28 01:26:00,31.0,-40.0,30.34,West,270,0.0,0.0,0,0.00,,,0.00,Rainwise IP-100,2013-12-28 06:26:00,
2013-12-28 01:31:00,31.0,-40.0,30.34,West,270,0.0,0.0,0,0.00,,,0.00,Rainwise IP-100,2013-12-28 06:31:00,
2013-12-28 01:36:00,31.0,-40.0,30.34,WNW,292,1.0,0.0,0,0.00,,,0.00,Rainwise IP-100,2013-12-28 06:36:00,
2013-12-28 01:41:00,31.0,-40.0,30.34,WNW,292,2.0,3.0,0,0.00,,,0.00,Rainwise IP-100,2013-12-28 06:41:00,
2013-12-28 01:46:00,32.0,-40.0,30.34,NW,315,0.0,3.0,0,0.00,,,0.00,Rainwise IP-100,2013-12-28 06:46:00,
2013-12-28 01:51:00,32.0,-40.0,30.34,WSW,247,1.0,1.0,0,0.00,,,0.00,Rainwise IP-100,2013-12-28 06:51:00,
2013-12-28 01:56:00,32.0,-40.0,30.34,West,270,1.0,2.0,0,0.00,,,0.00,Rainwise IP-100,2013-12-28 06:56:00,
2013-12-28 02:01:00,32.0,-40.0,30.34,WNW,292,1.0,2.0,0,0.00,,,0.00,Rainwise IP-100,2013-12-28 07:01:00,
2013-12-28 02:06:00,33.0,-40.0,30.34,West,270,0.0,2.0,0,0.00,,,0.00,Rainwise IP-100,2013-12-28 07:06:00,
2013-12-28 02:12:00,33.0,-40.0,30.34,WNW,292,0.0,5.0,0,0.00,,,0.00,Rainwise IP-100,2013-12-28 07:12:00,
2013-12-28 02:17:00,33.0,-40.0,30.34,NW,315,0.0,5.0,0,0.00,,,0.00,Rainwise IP-100,2013-12-28 07:17:00,
2013-12-28 02:22:00,33.0,-40.0,30.34,NW,315,0.0,0.0,0,0.00,,,0.00,Rainwise IP-100,2013-12-28 07:22:00,
2013-12-28 02:27:00,33.0,-40.0,30.34,NW,315,0.0,0.0,0,0.00,,,0.00,Rainwise IP-100,2013-12-28 07:27:00,
2013-12-28 02:32:00,33.0,-40.0,30.34,West,270,0.0,0.0,0,0.00,,,0.00,Rainwise IP-100,2013-12-28 07:32:00,
2013-12-28 02:37:00,33.0,-40.0,30.34,West,270,0.0,0.0,0,0.00,,,0.00,Rainwise IP-100,2013-12-28 07:37:00,
2013-12-28 02:42:00,33.0,-40.0,30.34,WNW,292,2.0,2.0,0,0.00,,,0.00,Rainwise IP-100,2013-12-28 07:42:00,
2013-12-28 02:47:00,33.0,-40.0,30.34,WNW,292,0.0,2.0,0,0.00,,,0.00,Rainwise IP-100,2013-12-28 07:47:00,
2013-12-28 02:52:00,33.0,-40.0,30.34,WNW,292,1.0,1.0,0,0.00,,,0.00,Rainwise IP-100,2013-12-28 07:52:00,
2013-12-28 02:57:00,32.0,-40.0,30.34,West,270,0.0,1.0,0,0.00,,,0.00,Rainwise IP-100,2013-12-28 07:57:00,
2013-12-28 03:02:00,32.0,-40.0,30.34,WNW,292,0.0,0.0,0,0.00,,,0.00,Rainwise IP-100,2013-12-28 08:02:00,
2013-12-28 03:07:00,32.0,-40.0,30.34,WNW,292,0.0,0.0,0,0.00,,,0.00,Rainwise IP-100,2013-12-28 08:07:00,
2013-12-28 03:12:00,32.0,-40.0,30.33,West,270,0.0,0.0,0,0.00,,,0.00,Rainwise IP-100,2013-12-28 08:12:00,
2013-12-28 03:17:00,32.0,-40.0,30.33,West,270,0.0,0.0,0,0.00,,,0.00,Rainwise IP-100,2013-12-28 08:17:00,
2013-12-28 03:22:00,31.0,-40.0,30.33,SW,225,0.0,0.0,0,0.00,,,0.00,Rainwise IP-100,2013-12-28 08:22:00,
2013-12-28 03:28:00,31.0,-40.0,30.33,SW,225,0.0,0.0,0,0.00,,,0.00,Rainwise IP-100,2013-12-28 08:28:00,
2013-12-28 03:33:00,31.0,-40.0,30.33,WSW,247,0.0,0.0,0,0.00,,,0.00,Rainwise IP-100,2013-12-28 08:33:00,
2013-12-28 03:38:00,31.0,-40.0,30.33,WSW,247,0.0,0.0,0,0.00,,,0.00,Rainwise IP-100,2013-12-28 08:38:00,
2013-12-28 03:43:00,31.0,-40.0,30.33,WSW,247,0.0,0.0,0,0.00,,,0.00,Rainwise IP-100,2013-12-28 08:43:00,
2013-12-28 03:48:00,31.0,-40.0,30.33,WSW,247,0.0,0.0,0,0.00,,,0.00,Rainwise IP-100,2013-12-28 08:48:00,
2013-12-28 03:53:00,31.0,-40.0,30.33,WSW,247,0.0,0.0,0,0.00,,,0.00,Rainwise IP-100,2013-12-28 08:53:00,
2013-12-28 03:58:00,30.0,-40.0,30.34,NW,315,0.0,0.0,0,0.00,,,0.00,Rainwise IP-100,2013-12-28 08:58:00,
2013-12-28 04:03:00,30.0,-40.0,30.34,SW,225,0.0,0.0,0,0.00,,,0.00,Rainwise IP-100,2013-12-28 09:03:00,
2013-12-28 04:08:00,30.0,-40.0,30.34,SW,225,0.0,0.0,0,0.00,,,0.00,Rainwise IP-100,2013-12-28 09:08:00,
2013-12-28 04:13:00,30.0,-40.0,30.33,West,270,0.0,1.0,0,0.00,,,0.00,Rainwise IP-100,2013-12-28 09:13:00,
2013-12-28 04:18:00,30.0,-40.0,30.33,West,270,0.0,1.0,0,0.00,,,0.00,Rainwise IP-100,2013-12-28 09:18:00,
2013-12-28 04:23:00,30.0,-40.0,30.33,SW,225,0.0,1.0,0,0.00,,,0.00,Rainwise IP-100,2013-12-28 09:23:00,
2013-12-28 04:28:00,32.0,-40.0,30.33,SW,225,0.0,1.0,0,0.00,,,0.00,Rainwise IP-100,2013-12-28 09:28:00,
2013-12-28 04:33:00,33.0,-40.0,30.32,NW,315,5.0,5.0,0,0.00,,,0.00,Rainwise IP-100,2013-12-28 09:33:00,
2013-12-28 04:38:00,33.0,-40.0,30.32,WNW,292,6.0,6.0,0,0.00,,,0.00,Rainwise IP-100,2013-12-28 09:38:00,
2013-12-28 04:44:00,34.0,-40.0,30.30,South,180,0.0,6.0,0,0.00,,,0.00,Rainwise IP-100,2013-12-28 09:44:00,
2013-12-28 04:49:00,34.0,-40.0,30.30,South,180,0.0,1.0,0,0.00,,,0.00,Rainwise IP-100,2013-12-28 09:49:00,
2013-12-28 04:54:00,34.0,-40.0,30.30,South,180,0.0,1.0,0,0.00,,,0.00,Rainwise IP-100,2013-12-28 09:54:00,
2013-12-28 04:59:00,34.0,-40.0,30.30,South,180,0.0,1.0,0,0.00,,,0.00,Rainwise IP-100,2013-12-28 09:59:00,
2013-12-28 05:04:00,34.0,-40.0,30.30,NW,315,1.0,1.0,0,0.00,,,0.00,Rainwise IP-100,2013-12-28 10:04:00,
2013-12-28 05:09:00,34.0,-40.0,30.30,NW,315,1.0,1.0,0,0.00,,,0.00,Rainwise IP-100,2013-12-28 10:09:00,
2013-12-28 05:14:00,35.0,-40.0,30.30,West,270,2.0,2.0,0,0.00,,,0.00,Rainwise IP-100,2013-12-28 10:14:00,
2013-12-28 05:19:00,35.0,-40.0,30.30,West,270,2.0,2.0,0,0.00,,,0.00,Rainwise IP-100,2013-12-28 10:19:00,
2013-12-28 05:24:00,35.0,-40.0,30.30,West,270,0.0,2.0,0,0.00,,,0.00,Rainwise IP-100,2013-12-28 10:24:00,
2013-12-28 05:29:00,35.0,-40.0,30.30,SW,225,0.0,2.0,0,0.00,,,0.00,Rainwise IP-100,2013-12-28 10:29:00,
2013-12-28 05:34:00,35.0,-40.0,30.30,WSW,247,0.0,2.0,0,0.00,,,0.00,Rainwise IP-100,2013-12-28 10:34:00,
2013-12-28 05:39:00,35.0,-40.0,30.30,West,270,1.0,2.0,0,0.00,,,0.00,Rainwise IP-100,2013-12-28 10:39:00,
2013-12-28 05:44:00,35.0,-40.0,30.30,West,270,1.0,2.0,0,0.00,,,0.00,Rainwise IP-100,2013-12-28 10:44:00,
2013-12-28 05:49:00,35.0,-40.0,30.30,SW,225,0.0,2.0,0,0.00,,,0.00,Rainwise IP-100,2013-12-28 10:49:00,
2013-12-28 05:54:00,35.0,-40.0,30.30,SW,225,0.0,1.0,0,0.00,,,0.00,Rainwise IP-100,2013-12-28 10:54:00,
2013-12-28 06:00:00,35.0,-40.0,30.30,WNW,292,0.0,1.0,0,0.00,,,0.00,Rainwise IP-100,2013-12-28 11:00:00,
2013-12-28 06:02:00,35.0,-40.0,30.30,West,270,0.0,1.0,0,0.00,,,0.00,Rainwise IP-100,2013-12-28 11:02:00,
2013-12-28 06:07:00,35.0,-40.0,30.30,NNW,337,0.0,1.0,0,0.00,,,0.00,Rainwise IP-100,2013-12-28 11:07:00,
2013-12-28 06:12:00,35.0,-40.0,30.30,WNW,292,0.0,1.0,0,0.00,,,0.00,Rainwise IP-100,2013-12-28 11:12:00,
2013-12-28 06:17:00,36.0,-40.0,30.30,SW,225,1.0,4.0,0,0.00,,,0.00,Rainwise IP-100,2013-12-28 11:17:00,
2013-12-28 06:22:00,36.0,-40.0,30.30,North,360,0.0,2.0,0,0.00,,,0.00,Rainwise IP-100,2013-12-28 11:22:00,
2013-12-28 06:27:00,36.0,-40.0,30.30,WNW,292,0.0,2.0,0,0.00,,,0.00,Rainwise IP-100,2013-12-28 11:27:00,
2013-12-28 06:32:00,36.0,-40.0,30.30,WNW,292,0.0,2.0,0,0.00,,,0.00,Rainwise IP-100,2013-12-28 11:32:00,
2013-12-28 06:37:00,36.0,-40.0,30.30,North,360,0.0,2.0,0,0.00,,,0.00,Rainwise IP-100,2013-12-28 11:37:00,
2013-12-28 06:42:00,36.0,-40.0,30.29,NW,315,1.0,0.0,0,0.00,,,0.00,Rainwise IP-100,2013-12-28 11:42:00,
2013-12-28 06:48:00,35.0,-40.0,30.29,WSW,247,1.0,2.0,0,0.00,,,0.00,Rainwise IP-100,2013-12-28 11:48:00,
2013-12-28 06:53:00,35.0,-40.0,30.29,SW,225,2.0,2.0,0,0.00,,,0.00,Rainwise IP-100,2013-12-28 11:53:00,
2013-12-28 06:58:00,35.0,-40.0,30.29,WSW,247,1.0,2.0,0,0.00,,,0.00,Rainwise IP-100,2013-12-28 11:58:00,
2013-12-28 07:03:00,35.0,-40.0,30.29,West,270,0.0,2.0,0,0.00,,,0.00,Rainwise IP-100,2013-12-28 12:03:00,
2013-12-28 07:08:00,36.0,-40.0,30.28,SW,225,4.0,6.0,0,0.00,,,0.00,Rainwise IP-100,2013-12-28 12:08:00,
2013-12-28 07:13:00,36.0,-40.0,30.28,WSW,247,0.0,6.0,0,0.00,,,0.00,Rainwise IP-100,2013-12-28 12:13:00,
2013-12-28 07:18:00,36.0,-40.0,30.28,WSW,247,0.0,0.0,0,0.00,,,0.00,Rainwise IP-100,2013-12-28 12:18:00,
2013-12-28 07:23:00,36.0,-40.0,30.28,WSW,247,0.0,0.0,0,0.00,,,0.00,Rainwise IP-100,2013-12-28 12:23:00,
2013-12-28 07:28:00,37.0,-40.0,30.28,SW,225,1.0,3.0,0,0.00,,,0.00,Rainwise IP-100,2013-12-28 12:28:00,
2013-12-28 07:33:00,37.0,-40.0,30.28,West,270,2.0,3.0,0,0.00,,,0.00,Rainwise IP-100,2013-12-28 12:33:00,
2013-12-28 07:38:00,38.0,-40.0,30.28,South,180,3.0,3.0,0,0.00,,,0.00,Rainwise IP-100,2013-12-28 12:38:00,
2013-12-28 07:43:00,38.0,-40.0,30.27,SW,225,0.0,6.0,0,0.00,,,0.00,Rainwise IP-100,2013-12-28 12:43:00,
2013-12-28 07:48:00,38.0,-40.0,30.27,SW,225,6.0,6.0,0,0.00,,,0.00,Rainwise IP-100,2013-12-28 12:48:00,
2013-12-28 07:53:00,39.0,-40.0,30.26,West,270,0.0,6.0,0,0.00,,,0.00,Rainwise IP-100,2013-12-28 12:53:00,
2013-12-28 07:58:00,39.0,-40.0,30.26,SW,225,1.0,4.0,0,0.00,,,0.00,Rainwise IP-100,2013-12-28 12:58:00,
2013-12-28 08:04:00,40.0,-40.0,30.25,SW,225,9.0,9.0,0,0.00,,,0.00,Rainwise IP-100,2013-12-28 13:04:00,
2013-12-28 08:09:00,40.0,-40.0,30.25,SW,225,2.0,9.0,0,0.00,,,0.00,Rainwise IP-100,2013-12-28 13:09:00,
2013-12-28 08:14:00,41.0,-40.0,30.25,WSW,247,4.0,9.0,0,0.00,,,0.00,Rainwise IP-100,2013-12-28 13:14:00,
2013-12-28 08:19:00,41.0,-40.0,30.25,WSW,247,6.0,9.0,0,0.00,,,0.00,Rainwise IP-100,2013-12-28 13:19:00,
2013-12-28 08:24:00,42.0,-40.0,30.26,WSW,247,7.0,12.0,0,0.00,,,0.00,Rainwise IP-100,2013-12-28 13:24:00,
2013-12-28 08:29:00,42.0,-40.0,30.26,SW,225,3.0,12.0,0,0.00,,,0.00,Rainwise IP-100,2013-12-28 13:29:00,
2013-12-28 08:34:00,42.0,-40.0,30.26,SW,225,2.0,10.0,0,0.00,,,0.00,Rainwise IP-100,2013-12-28 13:34:00,
2013-12-28 08:39:00,42.0,-40.0,30.26,SW,225,9.0,10.0,0,0.00,,,0.00,Rainwise IP-100,2013-12-28 13:39:00,
2013-12-28 08:44:00,43.0,-40.0,30.25,WNW,292,3.0,10.0,0,0.00,,,0.00,Rainwise IP-100,2013-12-28 13:44:00,
2013-12-28 08:49:00,43.0,-40.0,30.25,SW,225,8.0,12.0,0,0.00,,,0.00,Rainwise IP-100,2013-12-28 13:49:00,
2013-12-28 08:54:00,44.0,-40.0,30.25,SSW,202,7.0,12.0,0,0.00,,,0.00,Rainwise IP-100,2013-12-28 13:54:00,
2013-12-28 08:59:00,44.0,-40.0,30.25,West,270,7.0,10.0,0,0.00,,,0.00,Rainwise IP-100,2013-12-28 13:59:00,
2013-12-28 09:04:00,44.0,-40.0,30.25,West,270,5.0,10.0,0,0.00,,,0.00,Rainwise IP-100,2013-12-28 14:04:00,
2013-12-28 09:09:00,44.0,-40.0,30.25,NNW,337,2.0,6.0,0,0.00,,,0.00,Rainwise IP-100,2013-12-28 14:09:00,
2013-12-28 09:14:00,45.0,-40.0,30.24,SW,225,9.0,16.0,0,0.00,,,0.00,Rainwise IP-100,2013-12-28 14:14:00,
2013-12-28 09:20:00,45.0,-40.0,30.24,WSW,247,1.0,16.0,0,0.00,,,0.00,Rainwise IP-100,2013-12-28 14:20:00,
2013-12-28 09:25:00,46.0,-40.0,30.24,SW,225,10.0,12.0,0,0.00,,,0.00,Rainwise IP-100,2013-12-28 14:25:00,
2013-12-28 09:30:00,46.0,-40.0,30.24,South,180,6.0,12.0,0,0.00,,,0.00,Rainwise IP-100,2013-12-28 14:30:00,
2013-12-28 09:35:00,46.0,-40.0,30.23,SW,225,5.0,11.0,0,0.00,,,0.00,Rainwise IP-100,2013-12-28 14:35:00,
2013-12-28 09:40:00,46.0,-40.0,30.23,SE,135,0.0,11.0,0,0.00,,,0.00,Rainwise IP-100,2013-12-28 14:40:00,
2013-12-28 09:45:00,46.0,-40.0,30.23,SW,225,1.0,18.0,0,0.00,,,0.00,Rainwise IP-100,2013-12-28 14:45:00,
2013-12-28 09:50:00,47.0,-40.0,30.22,WSW,247,12.0,19.0,0,0.00,,,0.00,Rainwise IP-100,2013-12-28 14:50:00,
2013-12-28 09:55:00,47.0,-40.0,30.22,SSW,202,7.0,12.0,0,0.00,,,0.00,Rainwise IP-100,2013-12-28 14:55:00,
2013-12-28 10:00:00,47.0,-40.0,30.22,SW,225,6.0,16.0,0,0.00,,,0.00,Rainwise IP-100,2013-12-28 15:00:00,
2013-12-28 10:05:00,47.0,-40.0,30.22,SW,225,17.0,17.0,0,0.00,,,0.00,Rainwise IP-100,2013-12-28 15:05:00,
2013-12-28 10:10:00,47.0,-40.0,30.22,WSW,247,7.0,17.0,0,0.00,,,0.00,Rainwise IP-100,2013-12-28 15:10:00,
2013-12-28 10:15:00,48.0,-40.0,30.22,SW,225,10.0,16.0,0,0.00,,,0.00,Rainwise IP-100,2013-12-28 15:15:00,
2013-12-28 10:20:00,48.0,-40.0,30.22,SSW,202,10.0,13.0,0,0.00,,,0.00,Rainwise IP-100,2013-12-28 15:20:00,
2013-12-28 10:25:00,48.0,-40.0,30.21,SW,225,10.0,16.0,0,0.00,,,0.00,Rainwise IP-100,2013-12-28 15:25:00,
2013-12-28 10:30:00,48.0,-40.0,30.21,SW,225,10.0,16.0,0,0.00,,,0.00,Rainwise IP-100,2013-12-28 15:30:00,
2013-12-28 10:36:00,48.0,-40.0,30.20,WNW,292,7.0,16.0,0,0.00,,,0.00,Rainwise IP-100,2013-12-28 15:36:00,
2013-12-28 10:41:00,47.0,-40.0,30.21,SW,225,4.0,15.0,0,0.00,,,0.00,Rainwise IP-100,2013-12-28 15:41:00,
2013-12-28 10:46:00,47.0,-40.0,30.21,SW,225,7.0,20.0,0,0.00,,,0.00,Rainwise IP-100,2013-12-28 15:46:00,
2013-12-28 10:51:00,47.0,-40.0,30.21,SW,225,8.0,20.0,0,0.00,,,0.00,Rainwise IP-100,2013-12-28 15:51:00,
2013-12-28 10:56:00,47.0,-40.0,30.20,West,270,15.0,20.0,0,0.00,,,0.00,Rainwise IP-100,2013-12-28 15:56:00,
2013-12-28 11:01:00,47.0,-40.0,30.19,SW,225,6.0,19.0,0,0.00,,,0.00,Rainwise IP-100,2013-12-28 16:01:00,
2013-12-28 11:06:00,47.0,-40.0,30.19,ENE,67,3.0,14.0,0,0.00,,,0.00,Rainwise IP-100,2013-12-28 16:06:00,
2013-12-28 11:11:00,47.0,-40.0,30.19,WSW,247,6.0,10.0,0,0.00,,,0.00,Rainwise IP-100,2013-12-28 16:11:00,
2013-12-28 11:16:00,47.0,-40.0,30.19,SW,225,1.0,9.0,0,0.00,,,0.00,Rainwise IP-100,2013-12-28 16:16:00,
2013-12-28 11:21:00,47.0,-40.0,30.19,South,180,5.0,7.0,0,0.00,,,0.00,Rainwise IP-100,2013-12-28 16:21:00,
2013-12-28 11:26:00,47.0,-40.0,30.18,SW,225,15.0,15.0,0,0.00,,,0.00,Rainwise IP-100,2013-12-28 16:26:00,
2013-12-28 11:31:00,47.0,-40.0,30.18,WSW,247,6.0,15.0,0,0.00,,,0.00,Rainwise IP-100,2013-12-28 16:31:00,
2013-12-28 11:36:00,47.0,-40.0,30.18,WSW,247,6.0,11.0,0,0.00,,,0.00,Rainwise IP-100,2013-12-28 16:36:00,
2013-12-28 11:41:00,47.0,-40.0,30.16,South,180,6.0,17.0,0,0.00,,,0.00,Rainwise IP-100,2013-12-28 16:41:00,
2013-12-28 11:46:00,47.0,-40.0,30.16,WSW,247,8.0,14.0,0,0.00,,,0.00,Rainwise IP-100,2013-12-28 16:46:00,
2013-12-28 11:52:00,47.0,-40.0,30.16,West,270,12.0,15.0,0,0.00,,,0.00,Rainwise IP-100,2013-12-28 16:52:00,
2013-12-28 11:57:00,47.0,-40.0,30.16,SSW,202,15.0,18.0,0,0.00,,,0.00,Rainwise IP-100,2013-12-28 16:57:00,
2013-12-28 12:02:00,47.0,-40.0,30.16,SW,225,12.0,15.0,0,0.00,,,0.00,Rainwise IP-100,2013-12-28 17:02:00,
2013-12-28 12:07:00,47.0,-40.0,30.16,WSW,247,13.0,18.0,0,0.00,,,0.00,Rainwise IP-100,2013-12-28 17:07:00,
2013-12-28 12:12:00,47.0,-40.0,30.16,SW,225,9.0,18.0,0,0.00,,,0.00,Rainwise IP-100,2013-12-28 17:12:00,
2013-12-28 12:17:00,47.0,-40.0,30.16,SW,225,7.0,18.0,0,0.00,,,0.00,Rainwise IP-100,2013-12-28 17:17:00,
2013-12-28 12:22:00,47.0,-40.0,30.14,West,270,7.0,18.0,0,0.00,,,0.00,Rainwise IP-100,2013-12-28 17:22:00,
2013-12-28 12:27:00,48.0,-40.0,30.14,West,270,9.0,20.0,0,0.00,,,0.00,Rainwise IP-100,2013-12-28 17:27:00,
2013-12-28 12:32:00,49.0,-40.0,30.13,WSW,247,10.0,14.0,0,0.00,,,0.00,Rainwise IP-100,2013-12-28 17:32:00,
2013-12-28 12:37:00,49.0,-40.0,30.13,WSW,247,10.0,19.0,0,0.00,,,0.00,Rainwise IP-100,2013-12-28 17:37:00,
2013-12-28 12:42:00,49.0,-40.0,30.12,WSW,247,9.0,13.0,0,0.00,,,0.00,Rainwise IP-100,2013-12-28 17:42:00,
2013-12-28 12:47:00,49.0,-40.0,30.12,WNW,292,12.0,21.0,0,0.00,,,0.00,Rainwise IP-100,2013-12-28 17:47:00,
2013-12-28 12:52:00,50.0,-40.0,30.12,NNE,22,0.0,21.0,0,0.00,,,0.00,Rainwise IP-100,2013-12-28 17:52:00,
2013-12-28 12:57:00,50.0,-40.0,30.12,NNE,22,5.0,11.0,0,0.00,,,0.00,Rainwise IP-100,2013-12-28 17:57:00,
2013-12-28 13:02:00,50.0,-40.0,30.10,SW,225,10.0,12.0,0,0.00,,,0.00,Rainwise IP-100,2013-12-28 18:02:00,
2013-12-28 13:08:00,50.0,-40.0,30.10,WSW,247,19.0,19.0,0,0.00,,,0.00,Rainwise IP-100,2013-12-28 18:08:00,
2013-12-28 13:13:00,50.0,-40.0,30.10,WSW,247,6.0,19.0,0,0.00,,,0.00,Rainwise IP-100,2013-12-28 18:13:00,
2013-12-28 13:18:00,51.0,-40.0,30.10,SW,225,9.0,13.0,0,0.00,,,0.00,Rainwise IP-100,2013-12-28 18:18:00,
2013-12-28 13:23:00,50.0,-40.0,30.10,SW,225,10.0,17.0,0,0.00,,,0.00,Rainwise IP-100,2013-12-28 18:23:00,
2013-12-28 13:28:00,49.0,-40.0,30.10,WSW,247,23.0,23.0,0,0.00,,,0.00,Rainwise IP-100,2013-12-28 18:28:00,
2013-12-28 13:33:00,49.0,-40.0,30.10,West,270,15.0,23.0,0,0.00,,,0.00,Rainwise IP-100,2013-12-28 18:33:00,
2013-12-28 13:38:00,49.0,-40.0,30.10,SSW,202,5.0,23.0,0,0.00,,,0.00,Rainwise IP-100,2013-12-28 18:38:00,
2013-12-28 13:43:00,49.0,-40.0,30.10,West,270,10.0,23.0,0,0.00,,,0.00,Rainwise IP-100,2013-12-28 18:43:00,
2013-12-28 13:48:00,50.0,-40.0,30.10,WNW,292,7.0,13.0,0,0.00,,,0.00,Rainwise IP-100,2013-12-28 18:48:00,
2013-12-28 13:53:00,50.0,-40.0,30.10,SSW,202,12.0,17.0,0,0.00,,,0.00,Rainwise IP-100,2013-12-28 18:53:00,
2013-12-28 13:58:00,50.0,-40.0,30.10,WSW,247,12.0,17.0,0,0.00,,,0.00,Rainwise IP-100,2013-12-28 18:58:00,
2013-12-28 14:03:00,50.0,-40.0,30.10,West,270,5.0,17.0,0,0.00,,,0.00,Rainwise IP-100,2013-12-28 19:03:00,
2013-12-28 14:08:00,50.0,-40.0,30.10,WSW,247,10.0,11.0,0,0.00,,,0.00,Rainwise IP-100,2013-12-28 19:08:00,
2013-12-28 14:13:00,50.0,-40.0,30.09,SW,225,4.0,14.0,0,0.00,,,0.00,Rainwise IP-100,2013-12-28 19:13:00,
2013-12-28 14:18:00,50.0,-40.0,30.09,WSW,247,9.0,17.0,0,0.00,,,0.00,Rainwise IP-100,2013-12-28 19:18:00,
2013-12-28 14:24:00,50.0,-40.0,30.08,West,270,14.0,17.0,0,0.00,,,0.00,Rainwise IP-100,2013-12-28 19:24:00,
2013-12-28 14:29:00,49.0,-40.0,30.08,WSW,247,7.0,19.0,0,0.00,,,0.00,Rainwise IP-100,2013-12-28 19:29:00,
2013-12-28 14:34:00,50.0,-40.0,30.08,WSW,247,3.0,19.0,0,0.00,,,0.00,Rainwise IP-100,2013-12-28 19:34:00,
2013-12-28 14:39:00,50.0,-40.0,30.08,WNW,292,2.0,9.0,0,0.00,,,0.00,Rainwise IP-100,2013-12-28 19:39:00,
2013-12-28 14:44:00,49.0,-40.0,30.08,WSW,247,10.0,14.0,0,0.00,,,0.00,Rainwise IP-100,2013-12-28 19:44:00,
2013-12-28 14:49:00,49.0,-40.0,30.08,West,270,1.0,15.0,0,0.00,,,0.00,Rainwise IP-100,2013-12-28 19:49:00,
2013-12-28 14:54:00,49.0,-40.0,30.08,WSW,247,0.0,10.0,0,0.00,,,0.00,Rainwise IP-100,2013-12-28 19:54:00,
2013-12-28 14:59:00,49.0,-40.0,30.09,SW,225,4.0,11.0,0,0.00,,,0.00,Rainwise IP-100,2013-12-28 19:59:00,
2013-12-28 15:04:00,49.0,-40.0,30.09,West,270,8.0,12.0,0,0.00,,,0.00,Rainwise IP-100,2013-12-28 20:04:00,
2013-12-28 15:09:00,49.0,-40.0,30.09,North,360,6.0,11.0,0,0.00,,,0.00,Rainwise IP-100,2013-12-28 20:09:00,
2013-12-28 15:14:00,49.0,-40.0,30.08,NW,315,3.0,13.0,0,0.00,,,0.00,Rainwise IP-100,2013-12-28 20:14:00,
2013-12-28 15:19:00,49.0,-40.0,30.08,West,270,9.0,13.0,0,0.00,,,0.00,Rainwise IP-100,2013-12-28 20:19:00,
2013-12-28 15:24:00,49.0,-40.0,30.08,West,270,9.0,15.0,0,0.00,,,0.00,Rainwise IP-100,2013-12-28 20:24:00,
2013-12-28 15:29:00,49.0,-40.0,30.08,WSW,247,12.0,12.0,0,0.00,,,0.00,Rainwise IP-100,2013-12-28 20:29:00,
2013-12-28 15:34:00,49.0,-40.0,30.08,SW,225,10.0,12.0,0,0.00,,,0.00,Rainwise IP-100,2013-12-28 20:34:00,
2013-12-28 15:40:00,49.0,-40.0,30.08,SSW,202,4.0,12.0,0,0.00,,,0.00,Rainwise IP-100,2013-12-28 20:40:00,
2013-12-28 15:45:00,48.0,-40.0,30.08,South,180,13.0,14.0,0,0.00,,,0.00,Rainwise IP-100,2013-12-28 20:45:00,
2013-12-28 15:50:00,48.0,-40.0,30.08,SSW,202,9.0,14.0,0,0.00,,,0.00,Rainwise IP-100,2013-12-28 20:50:00,
2013-12-28 15:55:00,48.0,-40.0,30.08,SW,225,10.0,14.0,0,0.00,,,0.00,Rainwise IP-100,2013-12-28 20:55:00,
2013-12-28 16:00:00,48.0,-40.0,30.08,SW,225,8.0,14.0,0,0.00,,,0.00,Rainwise IP-100,2013-12-28 21:00:00,
2013-12-28 16:05:00,47.0,-40.0,30.08,SW,225,3.0,14.0,0,0.00,,,0.00,Rainwise IP-100,2013-12-28 21:05:00,
2013-12-28 16:10:00,47.0,-40.0,30.08,SW,225,7.0,13.0,0,0.00,,,0.00,Rainwise IP-100,2013-12-28 21:10:00,
2013-12-28 16:15:00,47.0,-40.0,30.08,SW,225,6.0,16.0,0,0.00,,,0.00,Rainwise IP-100,2013-12-28 21:15:00,
2013-12-28 16:20:00,47.0,-40.0,30.08,West,270,8.0,10.0,0,0.00,,,0.00,Rainwise IP-100,2013-12-28 21:20:00,
2013-12-28 16:25:00,47.0,-40.0,30.08,WSW,247,3.0,10.0,0,0.00,,,0.00,Rainwise IP-100,2013-12-28 21:25:00,
2013-12-28 16:30:00,47.0,-40.0,30.08,SSW,202,8.0,10.0,0,0.00,,,0.00,Rainwise IP-100,2013-12-28 21:30:00,
2013-12-28 16:35:00,47.0,-40.0,30.08,SW,225,8.0,10.0,0,0.00,,,0.00,Rainwise IP-100,2013-12-28 21:35:00,
2013-12-28 16:40:00,47.0,-40.0,30.09,SSW,202,2.0,13.0,0,0.00,,,0.00,Rainwise IP-100,2013-12-28 21:40:00,
2013-12-28 16:45:00,46.0,-40.0,30.09,West,270,6.0,9.0,0,0.00,,,0.00,Rainwise IP-100,2013-12-28 21:45:00,
2013-12-28 16:50:00,46.0,-40.0,30.11,NNW,337,6.0,7.0,0,0.00,,,0.00,Rainwise IP-100,2013-12-28 21:50:00,
2013-12-28 16:56:00,46.0,-40.0,30.11,WNW,292,7.0,12.0,0,0.00,,,0.00,Rainwise IP-100,2013-12-28 21:56:00,
2013-12-28 17:01:00,46.0,-40.0,30.11,West,270,6.0,7.0,0,0.00,,,0.00,Rainwise IP-100,2013-12-28 22:01:00,
2013-12-28 17:06:00,46.0,-40.0,30.10,NNW,337,6.0,10.0,0,0.00,,,0.00,Rainwise IP-100,2013-12-28 22:06:00,
2013-12-28 17:11:00,46.0,-40.0,30.10,North,360,5.0,10.0,0,0.00,,,0.00,Rainwise IP-100,2013-12-28 22:11:00,
2013-12-28 17:16:00,46.0,-40.0,30.10,NW,315,4.0,9.0,0,0.00,,,0.00,Rainwise IP-100,2013-12-28 22:16:00,
2013-12-28 17:21:00,46.0,-40.0,30.10,WSW,247,8.0,9.0,0,0.00,,,0.00,Rainwise IP-100,2013-12-28 22:21:00,
2013-12-28 17:26:00,46.0,-40.0,30.10,North,360,0.0,9.0,0,0.00,,,0.00,Rainwise IP-100,2013-12-28 22:26:00,
2013-12-28 17:31:00,46.0,-40.0,30.10,WNW,292,10.0,10.0,0,0.00,,,0.00,Rainwise IP-100,2013-12-28 22:31:00,
2013-12-28 17:36:00,46.0,-40.0,30.10,West,270,7.0,10.0,0,0.00,,,0.00,Rainwise IP-100,2013-12-28 22:36:00,
2013-12-28 17:41:00,46.0,-40.0,30.10,WNW,292,7.0,10.0,0,0.00,,,0.00,Rainwise IP-100,2013-12-28 22:41:00,
2013-12-28 17:46:00,46.0,-40.0,30.10,WNW,292,7.0,10.0,0,0.00,,,0.00,Rainwise IP-100,2013-12-28 22:46:00,
2013-12-28 17:51:00,46.0,-40.0,30.10,WNW,292,3.0,10.0,0,0.00,,,0.00,Rainwise IP-100,2013-12-28 22:51:00,
2013-12-28 17:56:00,46.0,-40.0,30.10,WNW,292,1.0,10.0,0,0.00,,,0.00,Rainwise IP-100,2013-12-28 22:56:00,
2013-12-28 18:01:00,46.0,-40.0,30.10,WNW,292,1.0,10.0,0,0.00,,,0.00,Rainwise IP-100,2013-12-28 23:01:00,
2013-12-28 18:06:00,46.0,-40.0,30.12,NW,315,10.0,13.0,0,0.00,,,0.00,Rainwise IP-100,2013-12-28 23:06:00,
2013-12-28 18:12:00,46.0,-40.0,30.12,West,270,6.0,15.0,0,0.00,,,0.00,Rainwise IP-100,2013-12-28 23:12:00,
2013-12-28 18:17:00,46.0,-40.0,30.12,NW,315,6.0,9.0,0,0.00,,,0.00,Rainwise IP-100,2013-12-28 23:17:00,
2013-12-28 18:22:00,46.0,-40.0,30.14,West,270,5.0,9.0,0,0.00,,,0.00,Rainwise IP-100,2013-12-28 23:22:00,
2013-12-28 18:27:00,46.0,-40.0,30.14,West,270,8.0,9.0,0,0.00,,,0.00,Rainwise IP-100,2013-12-28 23:27:00,
2013-12-28 18:32:00,46.0,-40.0,30.14,West,270,12.0,13.0,0,0.00,,,0.00,Rainwise IP-100,2013-12-28 23:32:00,
2013-12-28 18:37:00,46.0,-40.0,30.14,West,270,2.0,13.0,0,0.00,,,0.00,Rainwise IP-100,2013-12-28 23:37:00,
2013-12-28 18:42:00,45.0,-40.0,30.14,West,270,10.0,10.0,0,0.00,,,0.00,Rainwise IP-100,2013-12-28 23:42:00,
2013-12-28 18:47:00,45.0,-40.0,30.14,SW,225,0.0,15.0,0,0.00,,,0.00,Rainwise IP-100,2013-12-28 23:47:00,
2013-12-28 18:52:00,45.0,-40.0,30.15,West,270,4.0,12.0,0,0.00,,,0.00,Rainwise IP-100,2013-12-28 23:52:00,
2013-12-28 18:57:00,45.0,-40.0,30.15,SW,225,5.0,12.0,0,0.00,,,0.00,Rainwise IP-100,2013-12-28 23:57:00,
2013-12-28 19:02:00,45.0,-40.0,30.15,West,270,10.0,15.0,0,0.00,,,0.00,Rainwise IP-100,2013-12-29 00:02:00,
2013-12-28 19:07:00,45.0,-40.0,30.15,NW,315,2.0,14.0,0,0.00,,,0.00,Rainwise IP-100,2013-12-29 00:07:00,
2013-12-28 19:12:00,46.0,-40.0,30.16,West,270,0.0,15.0,0,0.00,,,0.00,Rainwise IP-100,2013-12-29 00:12:00,
2013-12-28 19:17:00,46.0,-40.0,30.16,West,270,7.0,10.0,0,0.00,,,0.00,Rainwise IP-100,2013-12-29 00:17:00,
2013-12-28 19:22:00,46.0,-40.0,30.15,North,360,2.0,12.0,0,0.00,,,0.00,Rainwise IP-100,2013-12-29 00:22:00,
2013-12-28 19:28:00,46.0,-40.0,30.15,West,270,7.0,7.0,0,0.00,,,0.00,Rainwise IP-100,2013-12-29 00:28:00,
2013-12-28 19:33:00,46.0,-40.0,30.15,NW,315,1.0,7.0,0,0.00,,,0.00,Rainwise IP-100,2013-12-29 00:33:00,
2013-12-28 19:38:00,46.0,-40.0,30.15,NW,315,2.0,7.0,0,0.00,,,0.00,Rainwise IP-100,2013-12-29 00:38:00,
2013-12-28 19:43:00,46.0,-40.0,30.15,WNW,292,2.0,10.0,0,0.00,,,0.00,Rainwise IP-100,2013-12-29 00:43:00,
2013-12-28 19:48:00,46.0,-40.0,30.15,NNW,337,5.0,8.0,0,0.00,,,0.00,Rainwise IP-100,2013-12-29 00:48:00,
2013-12-28 19:53:00,46.0,-40.0,30.15,WNW,292,2.0,8.0,0,0.00,,,0.00,Rainwise IP-100,2013-12-29 00:53:00,
2013-12-28 19:58:00,46.0,-40.0,30.15,WNW,292,3.0,8.0,0,0.00,,,0.00,Rainwise IP-100,2013-12-29 00:58:00,
2013-12-28 20:03:00,46.0,-40.0,30.15,WNW,292,2.0,8.0,0,0.00,,,0.00,Rainwise IP-100,2013-12-29 01:03:00,
2013-12-28 20:08:00,45.0,-40.0,30.15,West,270,1.0,9.0,0,0.00,,,0.00,Rainwise IP-100,2013-12-29 01:08:00,
2013-12-28 20:13:00,45.0,-40.0,30.16,WSW,247,7.0,7.0,0,0.00,,,0.00,Rainwise IP-100,2013-12-29 01:13:00,
2013-12-28 20:18:00,45.0,-40.0,30.16,West,270,7.0,7.0,0,0.00,,,0.00,Rainwise IP-100,2013-12-29 01:18:00,
2013-12-28 20:23:00,45.0,-40.0,30.16,WSW,247,6.0,7.0,0,0.00,,,0.00,Rainwise IP-100,2013-12-29 01:23:00,
2013-12-28 20:28:00,44.0,-40.0,30.16,SW,225,2.0,7.0,0,0.00,,,0.00,Rainwise IP-100,2013-12-29 01:28:00,
2013-12-28 20:33:00,44.0,-40.0,30.16,South,180,0.0,6.0,0,0.00,,,0.00,Rainwise IP-100,2013-12-29 01:33:00,
2013-12-28 20:38:00,44.0,-40.0,30.16,SSW,202,0.0,6.0,0,0.00,,,0.00,Rainwise IP-100,2013-12-29 01:38:00,
2013-12-28 20:44:00,44.0,-40.0,30.16,SSW,202,0.0,6.0,0,0.00,,,0.00,Rainwise IP-100,2013-12-29 01:44:00,
2013-12-28 20:49:00,43.0,-40.0,30.17,WSW,247,4.0,6.0,0,0.00,,,0.00,Rainwise IP-100,2013-12-29 01:49:00,
2013-12-28 20:54:00,43.0,-40.0,30.17,SW,225,1.0,6.0,0,0.00,,,0.00,Rainwise IP-100,2013-12-29 01:54:00,
2013-12-28 20:59:00,43.0,-40.0,30.17,SW,225,6.0,6.0,0,0.00,,,0.00,Rainwise IP-100,2013-12-29 01:59:00,
2013-12-28 21:04:00,44.0,-40.0,30.16,NW,315,9.0,9.0,0,0.00,,,0.00,Rainwise IP-100,2013-12-29 02:04:00,
2013-12-28 21:09:00,44.0,-40.0,30.16,NW,315,7.0,9.0,0,0.00,,,0.00,Rainwise IP-100,2013-12-29 02:09:00,
2013-12-28 21:14:00,44.0,-40.0,30.15,West,270,2.0,9.0,0,0.00,,,0.00,Rainwise IP-100,2013-12-29 02:14:00,
2013-12-28 21:19:00,44.0,-40.0,30.15,West,270,1.0,5.0,0,0.00,,,0.00,Rainwise IP-100,2013-12-29 02:19:00,
2013-12-28 21:24:00,45.0,-40.0,30.15,NW,315,2.0,5.0,0,0.00,,,0.00,Rainwise IP-100,2013-12-29 02:24:00,
2013-12-28 21:29:00,45.0,-40.0,30.15,NW,315,6.0,6.0,0,0.00,,,0.00,Rainwise IP-100,2013-12-29 02:29:00,
2013-12-28 21:34:00,45.0,-40.0,30.14,NNW,337,1.0,12.0,0,0.00,,,0.00,Rainwise IP-100,2013-12-29 02:34:00,
2013-12-28 21:39:00,45.0,-40.0,30.14,WNW,292,2.0,5.0,0,0.00,,,0.00,Rainwise IP-100,2013-12-29 02:39:00,
2013-12-28 21:44:00,45.0,-40.0,30.14,WNW,292,1.0,5.0,0,0.00,,,0.00,Rainwise IP-100,2013-12-29 02:44:00,
2013-12-28 21:49:00,44.0,-40.0,30.14,SW,225,0.0,5.0,0,0.00,,,0.00,Rainwise IP-100,2013-12-29 02:49:00,
2013-12-28 21:54:00,44.0,-40.0,30.15,West,270,0.0,1.0,0,0.00,,,0.00,Rainwise IP-100,2013-12-29 02:54:00,
2013-12-28 22:00:00,44.0,-40.0,30.15,SSE,157,0.0,0.0,0,0.00,,,0.00,Rainwise IP-100,2013-12-29 03:00:00,
2013-12-28 22:05:00,44.0,-40.0,30.15,WSW,247,0.0,0.0,0,0.00,,,0.00,Rainwise IP-100,2013-12-29 03:05:00,
2013-12-28 22:10:00,43.0,-40.0,30.15,West,270,0.0,1.0,0,0.00,,,0.00,Rainwise IP-100,2013-12-29 03:10:00,
2013-12-28 22:15:00,43.0,-40.0,30.15,WNW,292,1.0,1.0,0,0.00,,,0.00,Rainwise IP-100,2013-12-29 03:15:00,
2013-12-28 22:20:00,42.0,-40.0,30.15,SW,225,0.0,2.0,0,0.00,,,0.00,Rainwise IP-100,2013-12-29 03:20:00,
2013-12-28 22:25:00,42.0,-40.0,30.15,WSW,247,0.0,2.0,0,0.00,,,0.00,Rainwise IP-100,2013-12-29 03:25:00,
2013-12-28 22:30:00,42.0,-40.0,30.15,WSW,247,1.0,2.0,0,0.00,,,0.00,Rainwise IP-100,2013-12-29 03:30:00,
2013-12-28 22:35:00,42.0,-40.0,30.15,WSW,247,2.0,2.0,0,0.00,,,0.00,Rainwise IP-100,2013-12-29 03:35:00,
2013-12-28 22:40:00,42.0,-40.0,30.15,WSW,247,2.0,2.0,0,0.00,,,0.00,Rainwise IP-100,2013-12-29 03:40:00,
2013-12-28 22:45:00,42.0,-40.0,30.15,WSW,247,2.0,2.0,0,0.00,,,0.00,Rainwise IP-100,2013-12-29 03:45:00,
2013-12-28 22:50:00,42.0,-40.0,30.15,SW,225,0.0,2.0,0,0.00,,,0.00,Rainwise IP-100,2013-12-29 03:50:00,
2013-12-28 22:55:00,43.0,-40.0,30.14,West,270,1.0,6.0,0,0.00,,,0.00,Rainwise IP-100,2013-12-29 03:55:00,
2013-12-28 23:00:00,43.0,-40.0,30.14,West,270,1.0,1.0,0,0.00,,,0.00,Rainwise IP-100,2013-12-29 04:00:00,
2013-12-28 23:05:00,43.0,-40.0,30.14,SW,225,0.0,5.0,0,0.00,,,0.00,Rainwise IP-100,2013-12-29 04:05:00,
2013-12-28 23:10:00,43.0,-40.0,30.14,SW,225,1.0,5.0,0,0.00,,,0.00,Rainwise IP-100,2013-12-29 04:10:00,
2013-12-28 23:16:00,43.0,-40.0,30.14,SW,225,0.0,5.0,0,0.00,,,0.00,Rainwise IP-100,2013-12-29 04:16:00,
2013-12-28 23:21:00,43.0,-40.0,30.14,SW,225,0.0,5.0,0,0.00,,,0.00,Rainwise IP-100,2013-12-29 04:21:00,
2013-12-28 23:26:00,43.0,-40.0,30.14,SSW,202,0.0,5.0,0,0.00,,,0.00,Rainwise IP-100,2013-12-29 04:26:00,
2013-12-28 23:31:00,43.0,-40.0,30.14,SW,225,5.0,5.0,0,0.00,,,0.00,Rainwise IP-100,2013-12-29 04:31:00,
2013-12-28 23:36:00,43.0,-40.0,30.14,SW,225,3.0,5.0,0,0.00,,,0.00,Rainwise IP-100,2013-12-29 04:36:00,
2013-12-28 23:41:00,43.0,-40.0,30.14,SW,225,1.0,5.0,0,0.00,,,0.00,Rainwise IP-100,2013-12-29 04:41:00,
2013-12-28 23:46:00,43.0,-40.0,30.14,SW,225,1.0,5.0,0,0.00,,,0.00,Rainwise IP-100,2013-12-29 04:46:00,
2013-12-28 23:51:00,43.0,-40.0,30.14,SW,225,1.0,5.0,0,0.00,,,0.00,Rainwise IP-100,2013-12-29 04:51:00,
2013-12-28 23:56:00,41.0,-40.0,30.14,SW,225,0.0,5.0,0,0.00,,,0.00,Rainwise IP-100,2013-12-29 04:56:00,